Location: Sinnemahoning State Park
(41.4031°N, 78.0230°W)
Time: 06:53:06
(UTC-04:00)

Daily predictions for brighter satellites

Satellite Brightness Start Highest point End
(mag) Time Altitude Azimuth Time Altitude Azimuth Time Altitude Azimuth
ATLAS 3B R/B 3.5 21:14:01 10° NNW 21:20:13 39° NE 21:26:18 10° ESE
Resurs 1-3 3.9 21:16:58 10° S 21:21:20 70° WSW 21:25:43 10° NNW
Lacrosse 5 2.5 21:17:41 10° WSW 21:22:42 62° NW 21:27:44 10° NE
Cosmos 1939 Rocket 4.0 21:19:00 10° S 21:22:53 44° W 21:26:45 10° NNW
ARGOS 3.7 21:18:40 10° SE 21:23:45 44° ENE 21:28:53 10° N
USA 238 DEB 4.2 21:20:01 10° NNW 21:27:03 57° NE 21:34:09 10° SE
Cosmos 1953 Rocket 3.6 21:22:50 10° S 21:27:07 63° E 21:31:29 10° NNE
USA 238 4.2 21:20:07 10° NNW 21:27:09 57° NE 21:34:15 10° SE
Cosmos 2278 Rocket 3.5 21:23:21 10° SE 21:27:17 20° E 21:31:13 10° NE
Cosmos 1110 Rocket 4.4 21:27:00 10° N 21:32:02 49° ENE 21:37:01 10° SE
Cosmos 1758 Rocket 3.6 21:27:39 10° S 21:32:06 90° SE 21:36:32 10° N
Cosmos 1315 Rocket 3.3 21:35:33 10° SSW 21:39:35 68° W 21:43:42 10° N
Cosmos 1844 Rocket 2.7 21:35:22 10° SSW 21:41:01 82° ESE 21:46:42 10° NNE
Cosmos 494 Rocket 4.1 21:38:02 10° S 21:43:10 60° ESE 21:48:22 10° NNE
Cosmos 1331 Rocket 4.3 21:38:23 10° N 21:43:30 55° ENE 21:48:20 12° SE
Cosmos 921 Rocket 3.2 21:40:09 10° NNW 21:44:39 66° ENE 21:48:59 11° SSE
COSMOS 2406 3.5 21:42:37 10° NNW 21:48:19 58° ENE 21:53:24 13° SE
Cosmos 1461 3.9 21:46:10 10° S 21:50:14 32° ESE 21:54:27 10° NE
Cosmos 1844 3.7 21:44:57 10° SSW 21:50:37 76° ESE 21:56:24 10° NNE
Resurs 01 Rocket 3.1 21:47:57 10° SSW 21:51:58 34° W 21:56:02 10° NNW
H-2A R/B 2.3 21:47:33 10° SSE 21:52:47 64° ENE 21:58:10 10° N
ATLAS 2AS CENTAUR R/B 3.3 21:46:00 10° SW 21:53:50 81° NW 22:02:01 10° NNE
KORONAS-FOTON 4.1 21:51:34 10° S 21:55:20 49° E 21:59:09 10° NNE
ATLAS 5 CENTAUR R/B 3.0 21:53:56 13° SSE 21:56:30 20° ESE 21:59:53 10° ENE
Cosmos 1437 3.4 21:55:39 10° NNW 21:58:45 51° W 22:01:49 10° S
Iridium 4 Rocket 4.3 21:55:38 10° SSW 22:01:05 55° W 22:06:08 10° N
OAO 3 Rocket 4.0 21:56:47 10° WSW 22:01:17 35° S 22:04:34 16° SE
SL-14 R/B 4.5 22:00:40 17° SE 22:02:41 25° E 22:05:57 10° NE
Cosmos 1346 Rocket 3.4 22:04:06 10° NNW 22:08:03 55° W 22:12:00 10° S
Cosmos 220 Rocket 4.0 22:04:28 10° S 22:08:36 59° ESE 22:12:46 10° NNE
Terra 3.4 22:06:53 13° ESE 22:09:45 22° ENE 22:13:21 10° NNE
ERS-1 Rocket 3.0 22:06:44 15° SSE 22:10:51 68° ENE 22:15:53 10° N
BREEZE-M DEB (TANK) 3.7 22:00:59 10° WSW 22:11:01 69° NNW 22:14:15 10° NE
Cosmos 1626 4.0 22:10:24 15° ESE 22:11:10 15° E 22:13:24 10° NE
SL-8 R/B 4.4 22:06:40 10° WSW 22:11:26 58° NNW 22:16:13 10° ENE
Cosmos 1302 Rocket 4.3 22:08:05 10° NNW 22:13:18 56° ENE 22:16:58 19° SE
Cosmos 1833 Rocket 4.1 22:08:46 10° N 22:13:21 25° NE 22:17:18 12° ESE
Cosmos 2082 Rocket 3.8 22:10:13 10° N 22:14:43 23° NE 22:18:47 12° ESE
CZ-2C R/B 4.2 22:16:15 10° NE 22:19:29 16° E 22:20:49 15° ESE
USA 215 3.8 22:14:20 15° SSE 22:19:41 51° SW 22:26:03 10° NW
Cosmos 1745 Rocket 4.1 22:13:46 10° N 22:20:04 65° E 22:24:48 18° SSE
SL-08 R/B 4.5 22:15:33 10° N 22:21:44 85° E 22:27:00 15° S
Cosmos 1340 2.6 22:18:41 10° N 22:22:30 82° E 22:24:49 22° SSE
Iridium 81 4.3 22:20:50 18° SSW 22:22:32 57° W 22:25:29 10° N
Cosmos 1908 3.7 22:18:47 10° NNW 22:22:36 57° W 22:25:48 14° S
DMSP B5D2-2 4.1 22:19:12 10° NNE 22:24:25 66° ESE 22:29:08 13° S
CENTAUR R/B 4.0 22:18:50 10° NNW 22:26:09 40° NE 22:33:17 13° ESE
MetOp-B 4.5 22:22:42 12° S 22:27:33 64° WSW 22:32:53 10° NNW
NOSS 2-2 (E) 3.7 22:26:03 19° S 22:28:23 39° ESE 22:32:21 10° NE
Cosmos 2251 Rocket 3.5 22:23:30 10° SSW 22:28:49 78° ESE 22:34:09 10° NNE
Cosmos-2242 4.5 22:25:54 10° NNW 22:29:54 35° W 22:33:53 10° SSW
NOSS 3-4 (A) 3.4 22:25:15 10° SSW 22:31:19 65° ESE 22:37:38 10° NE
NOSS 3-4 (C) 3.4 22:25:21 10° SSW 22:31:24 64° ESE 22:37:42 10° NE
Meteor 2-10 4.3 22:29:38 10° NNW 22:35:06 78° W 22:39:22 18° S
Helios 1B rocket 2.8 22:33:27 10° NNE 22:37:23 43° E 22:38:53 30° SSE
Cosmos 1674 4.3 22:34:15 10° SW 22:37:44 33° WNW 22:41:16 10° N
Helios 1A 2.9 22:37:59 28° SSE 22:40:08 77° ENE 22:44:21 10° N
Meteor 1-29 3.8 22:38:25 10° NNE 22:41:28 31° E 22:41:37 31° ESE
Cosmos 1455 4.2 22:40:37 10° NE 22:42:47 15° ENE 22:43:26 14° E
Cosmos 1726 3.1 22:39:49 10° NNW 22:43:25 43° W 22:45:50 18° SSW
Cosmos 1300 2.6 22:41:01 10° N 22:44:51 76° E 22:46:20 36° SSE
S3M 4.3 22:41:20 10° SSW 22:47:39 69° W 22:54:03 10° N
APEX 3.5 22:47:54 10° NW 22:51:06 51° WSW 22:52:31 32° S
Cosmos 1709 Rocket 4.1 22:47:03 10° N 22:53:11 59° E 22:56:22 28° SSE
Cosmos 1842 Rocket 4.1 22:50:07 10° NNW 22:54:22 53° W 22:56:56 22° SSW
CZ-2C R/B 3.6 22:54:27 28° SE 22:57:23 57° ENE 23:03:00 10° N
SPOT 5 3.2 22:54:57 25° S 22:57:58 69° WSW 23:03:16 10° NNW
NOSS 2-2 (D) 3.2 22:57:20 25° SSW 22:59:25 72° ESE 23:03:41 10° NE
RESURS DK-1 2.6 23:03:43 43° SE 23:04:11 45° ESE 23:08:09 10° NE
Cosmos 2278 Rocket 2.7 23:05:15 10° SW 23:10:50 59° WNW 23:16:28 10° NNE
ATLAS 3B R/B 3.3 23:04:44 10° NW 23:10:57 44° WSW 23:14:25 24° S
Meteor 1-11 4.5 23:12:37 35° SSE 23:14:47 54° E 23:20:26 10° NNE
Cosmos 1328 3.7 23:14:45 50° S 23:15:44 89° E 23:19:42 10° N
Cosmos 2221 3.0 23:15:26 10° NNW 23:19:39 54° W 23:21:11 34° SSW
Spot 1 4.2 23:21:12 43° S 23:22:34 73° WSW 23:27:13 10° NNW
SL-27 R/B 2.6 23:20:47 10° NNW 23:24:23 61° ENE 23:24:32 61° E
NOSS 2-2 (C) 3.8 23:22:44 17° SW 23:25:37 61° NW 23:29:54 10° NNE
Cosmos 1441 Rocket 4.4 23:22:37 10° NNE 23:25:57 29° ENE 23:26:00 29° ENE
Okean 3 Rocket 3.6 23:27:16 43° SSW 23:28:38 76° W 23:33:03 10° N
H-2A R/B 4.4 23:29:23 10° SW 23:32:39 16° W 23:35:58 10° NW
Cosmos 2315 Rocket 4.2 23:29:38 26° SSW 23:33:26 73° W 23:39:48 10° N
Aureole 3 Rocket 4.1 23:31:28 25° SSW 23:36:02 79° W 23:41:30 10° N
Cosmos 1328 Rocket 4.2 23:32:05 10° N 23:36:13 41° ENE 23:36:39 39° E
Cosmos 2369 Rocket 3.8 23:39:36 18° E 23:39:36 18° E 23:43:01 10° ENE
Cosmos 405 Rocket 3.8 23:36:11 10° N 23:39:21 31° ENE 23:39:21 31° ENE
ATLAS 5 CENTAUR R/B 2.7 23:36:22 10° WSW 23:40:41 46° NW 23:45:27 10° NNE
Cosmos 1743 Rocket 4.5 23:42:24 33° E 23:42:24 33° E 23:46:16 10° NNE
Cosmos 2228 Rocket 4.1 23:40:40 10° N 23:44:42 33° ENE 23:45:04 32° E
Cosmos 1626 3.7 23:45:00 25° WSW 23:46:11 31° WNW 23:49:32 10° NNW
Terra 2.7 23:45:46 32° SW 23:47:13 41° W 23:51:43 10° NNW
Cosmos 2184 Rocket 4.1 23:42:16 10° N 23:48:33 64° E 23:50:33 43° SE
